IRIDIUM 47

Last updated on Wed Nov 29 2017 00:19:02 GMT+0000 (Coordinated Universal Time)

1 25106U 97082C 17332.53452788 .00000095 00000-0 26774-4 0 9992 2 25106 86.3973 186.6150 0001905 90.9716 269.1698 14.34219568 43928
UTC large
Height (km)
Speed (km/s)
/
Latitude / Longitude
Inclination (degrees)
Orbital Period (minutes)
Azimuth
Elevation
Range (km)
Doppler Factor

Next 0 passes for location: London (51.5072 / 0.1276)

Sorry there are no passes over London.